Regional Weather Roundup
Issued by NWS Charleston, SC

Home | Current Version | Previous Version | Text Only | Print | Product List | Glossary On
Versions: 1 2 3 4 5 6 7 8 9 10 11 12 13 14 15 16 17 18 19 20 21 22 23 24 25 26 27 28 29 30 31 32 33 34 35 36 37 38 39 40 41 42 43 44 45 46 47 48 49 50
000
ASUS42 KCHS 261012
RWRCHS

REGIONAL WEATHER ROUNDUP
NATIONAL WEATHER SERVICE CHARLESTON SC
600 AM EDT TUE MAY 26 2015

NOTE: "FAIR" INDICATES FEW OR NO CLOUDS BELOW 12,000 FEET WITH NO
SIGNIFICANT WEATHER AND/OR OBSTRUCTIONS TO VISIBILITY.

NOT ALL STATIONS ARE QUALITY CONTROLLED BY THE NATIONAL
WEATHER SERVICE. USE DATA WITH CAUTION...ESPECIALLY
DEWPOINT OBSERVATIONS.

SCZ027-030-031-034>040-042>050-261100-
...SOUTHEAST SOUTH CAROLINA...

CITY           SKY/WX    TMP DP  RH WIND       PRES   REMARKS
N CHARLESTON   PTCLDY    71  69  93 CALM      30.23S
WATERFRONT PAR   N/A     75  73  93 VRB3      30.20R
MOUNT PLEASANT LGT RAIN  70  70 100 CALM      30.24R
JOHNS ISLAND   CLOUDY    73  72  94 CALM      30.23S
PINOPOLIS        N/A     72  70  94 CALM      30.16R
MONCKS CORNER  FAIR      68  64  88 CALM      30.24R
SUMMERVILLE    FAIR      66  66 100 CALM      30.24R
BEAUFORT MCAS  MOCLDY    72  71  97 CALM      30.22S
BEAUFORT ARPT  PTSUNNY   72  72 100 CALM      30.22S
HILTON HEAD IS NOT AVBL
WALTERBORO     FOG       63  63 100 CALM      30.24S VSB 1/4
ALLENDALE      FOG       70  68  94 CALM      30.23S VSB<1/4

...SOUTHERN MIDLANDS AND PEE DEE...

CITY           SKY/WX    TMP DP  RH WIND       PRES   REMARKS
GEORGETOWN     NOT AVBL
KINGSTREE      NOT AVBL
ORANGEBURG     MOCLDY    65  63  93 CALM      30.24S FOG
BARNWELL       FOG       70  70 100 CALM      30.25R VSB 1/2
AIKEN          CLOUDY    68  64  88 S3        30.29R
MANNING        PTSUNNY   63  37  39 CALM      30.25R HAZE
COLUMBIA       PTCLDY    67  62  84 CALM      30.24S
SUMTER         MOCLDY    66  64  94 NE3       30.24R
FLORENCE       CLEAR     64  63  96 CALM      30.25R
MYRTLE BEACH   NOT AVBL
N MYRTLE BEACH MOCLDY    75  68  78 SE6       30.25R

$$

GAZ063-065-086>088-099>101-113>116-118-119-134>141-150-261100-
...SOUTHEAST GEORGIA...

CITY           SKY/WX    TMP DP  RH WIND       PRES   REMARKS
SAVANNAH ARPT  MOCLDY    70  69  97 CALM      30.22R
HUNTER AAF     PTCLDY    72  72 100 CALM      30.19S
FORT STEWART   PTCLDY    68  67  95 CALM      30.20R
STATESBORO     FOG       69  32  25 CALM      30.23R VSB 3/4
SYLVANIA       CLOUDY    70  70 100 CALM      30.24R FOG
CLAXTON        FOG       68  68 100 CALM      30.22R VSB 1/2

...CSRA...CENTRAL AND FAR SOUTHEAST GEORGIA...

CITY           SKY/WX    TMP DP  RH WIND       PRES   REMARKS
THOMSON        CLOUDY    73  71  95 SE3       30.28R
AUGUSTA-BUSH   CLOUDY    69  68  96 E3        30.24R
AUGUSTA-DANIEL CLOUDY    72  68  87 SE5       30.25R
SWAINSBORO     CLOUDY   N/A N/A N/A E5        30.23R
VIDALIA          N/A     70  70 100 E5        30.21S FOG
EASTMAN        CLOUDY    73  73 100 SE3       30.22S
HAZLEHURST     CLOUDY    74  74 100 CALM      30.20R
ALMA           CLOUDY    72  71  97 SE7       30.19S FOG
WAYCROSS       CLOUDY    71  71 100 CALM      30.20R FOG
JESUP          PTSUNNY   72  72 100 CALM      30.21R FOG
BAXLEY         FOG       72  72 100 SE3       30.20R VSB 3/4
BRUNSWICK      CLOUDY    72  68  88 CALM      30.21S
SAINT SIMONS   NOT AVBL

$$

SCZ027-028-034-036>038-045-046-048>050-GAZ119-141-261100-
...LAKE AND SUPPLEMENTAL COASTAL OBSERVATIONS...

STATION/POSITION TIME  TEMP    WIND        PRES    WAVE   SWELL
                       AIR SEA DIR/SP/G            HT/PER HT/PER/DIR
                 (UTC) (F)     (DEG/KT/KT) (MB)    (FT/S) (FT/S/D)
UPR LAKE MARION  NOT AVBL
WINYAH BAY       NOT AVBL
LAKE MURRAY      0900   72     170/  5/  8 1023.7R
ACE BASIN NERRS  NOT AVBL
FORT PULASKI     0900   75 78  110/  4/  5 1023.4R
SAPELO ISLAND    0900   75     130/  3     1023.0R

$$

ANZ835-935-AMZ111-154-330-350-352-354-370-450-454-472-261100-
...C-MAN AND BUOY OBSERVATIONS...

STATION/POSITION TIME  TEMP    WIND        PRES    WAVE   SWELL
                       AIR SEA DIR/SP/G            HT/PER HT/PER/DIR
                 (UTC) (F)     (DEG/KT/KT) (MB)    (FT/S) (FT/S/D)
BUOY 41004       0950   78 76  170/  8/ 10 1023.1R   4/ 7   3/ 7
BUOY 41008       0950   76 76  150/  6/  8 1022.9R   3/ 8   2/ 90/ 8
FOLLY BEACH CMAN 1000   75     210/  4/  5 1023.8R
CAPERS NEARSHORE 0908   75     160/  6/  8 1023.5R
FRIPP NEARSHORE  0900   76     130/  6/  8 1022.5S


STATION/POSITION TIME  TEMP    WIND        PRES    WAVE   SWELL
                       AIR SEA DIR/SP/G            HT/PER HT/PER/DIR
                 (UTC) (F)     (DEG/KT/KT) (MB)    (FT/S) (FT/S/D)
5E ST. MARYS GA  0921      78                N/A     3/ 8
FRYING PAN BUOY  0950   77 74  140/ 10/ 12 1025.2R   3/ 7   3/130/ 7
BUOY 41025       0950   75 77  170/ 16/ 17 1026.1R   3/ 5   2/110/ 7
CAPE LOOKOUT NC  1000   74     170/ 11/ 13 1025.4R
BUOY 41002       0950   73 74  130/ 12/ 16 1026.0R   4/ 6   2/ 90/ 6
BUOY 41010       0920   79 81  120/ 12/ 14 1022.4R
ST AUGUSTINE FL  1000   77 79  130/ 11/ 11 1023.1R


$$


USA.gov is the U.S. government's official web portal to all federal, state and local government web resources and services.